Simultaneous Nadir Overpasses (SNOs) Predictions

Prediction of SNOs between FY3D and NOAA-19 Satellite Orbit:

Table of predicted SNOs for the next 14.0 days since TLE Epoch: 4/27/2019
Index Date (FY3D) Time (FY3D) Lat,Lon (FY3D) SZA (FY3D ) Date (NOAA-19) Time (NOAA-19) Lat,Lon (NOAA-19) SZA (NOAA-19 ) Distance(km) Time Diff (sec)
1 05/02/2019 04:59:51 -80.16,-114.03 112.94 05/02/2019 04:58:38 -80.18,-114.15 112.89 2.75 73
2 05/02/2019 05:50:37 80.18, 53.04 67.09 05/02/2019 05:49:43 80.17, 52.97 67.11 2.00 54
3 05/02/2019 06:41:21 -80.18,-139.66 112.92 05/02/2019 06:40:39 -80.17,-139.69 112.91 1.35 42
4 05/02/2019 07:32:06 80.18, 27.72 67.06 05/02/2019 07:31:43 80.19, 27.76 67.08 1.27 23
5 05/02/2019 08:22:50 -80.18,-164.98 112.95 05/02/2019 08:22:39 -80.19,-164.90 112.94 1.98 11
6 05/02/2019 09:13:36 80.20, 2.09 67.09 05/02/2019 09:13:44 80.19, 2.22 67.06 2.90 8
7 05/02/2019 10:04:19 -80.17, 169.70 112.98 05/02/2019 10:04:40 -80.19, 169.56 112.96 3.23 21
8 05/02/2019 10:55:05 80.20, -23.22 67.06 05/02/2019 10:55:45 80.18, -23.32 67.04 2.44 40
9 05/02/2019 11:45:49 -80.20, 144.08 112.96 05/02/2019 11:46:41 -80.19, 144.02 112.98 1.54 52
10 05/02/2019 12:36:34 80.19, -48.54 67.03 05/02/2019 12:37:45 80.20, -48.54 67.00 1.09 71




NCC Satellite Simultaneous Nadir Overpasses (SNOs) Prediction Service
